INMARSAT 4-F2

Last updated on Tue Sep 22 2026 00:03:11 GMT+0000 (Coordinated Universal Time)

1 28899U 05044A 26264.44093525 -.00000260 00000+0 00000+0 0 9998 2 28899 5.2195 43.7189 0002556 138.1142 120.7442 1.00271507 76488
UTC large
Height (km)
Speed (km/s)
/
Latitude / Longitude
Inclination (degrees)
Orbital Period (minutes)
Azimuth
Elevation
Range (km)
Doppler Factor

Next 0 passes for location: London (51.5072 / 0.1276)

No passes found over London.
INMARSAT 4-F2